HK36M MNMG-SKSP

Flight info

Callsign HK36M
Flight time 1h 6m
Altitude 27000
Route DAVIB1 DAVIB R505 BLU V244 DURAM DURAM2C
Aircraft BE9L/L-SBDFGRY/SB1

Departure

Time 2026-04-23 00:12
Airport Augusto C. Sandino (Managua) International Airport (MNMG)

Arrival

Time 2026-04-23 01:18
Airport Gustavo Rojas Pinilla International Airport (SKSP)
Time Latitude Longitude Altitude Speed Heading
2026-04-23 00:03 12.14386 -86.16894 192 ft 0 kts 96°
2026-04-23 00:06 12.14383 -86.16891 192 ft 1 kts 172°
2026-04-23 00:07 12.14347 -86.16905 202 ft 11 kts 202°
2026-04-23 00:07 12.14308 -86.16984 191 ft 16 kts 277°
2026-04-23 00:07 12.14324 -86.17118 191 ft 18 kts 276°
2026-04-23 00:07 12.14337 -86.17223 196 ft 16 kts 278°
2026-04-23 00:08 12.14351 -86.17340 192 ft 15 kts 272°
2026-04-23 00:08 12.14359 -86.17453 192 ft 15 kts 277°
2026-04-23 00:08 12.14372 -86.17538 192 ft 9 kts 278°
2026-04-23 00:08 12.14383 -86.17624 192 ft 9 kts 276°
2026-04-23 00:09 12.14390 -86.17700 192 ft 10 kts 276°
2026-04-23 00:09 12.14391 -86.17754 199 ft 9 kts 255°
2026-04-23 00:09 12.14373 -86.17785 199 ft 0 kts 239°
2026-04-23 00:10 12.14372 -86.17788 198 ft 2 kts 239°
2026-04-23 00:10 12.14343 -86.17839 200 ft 9 kts 238°
2026-04-23 00:10 12.14278 -86.17854 194 ft 8 kts 123°
2026-04-23 00:11 12.14264 -86.17776 194 ft 15 kts 96°
2026-04-23 00:11 12.14238 -86.17537 193 ft 60 kts 96°
2026-04-23 00:11 12.14169 -86.16937 234 ft 105 kts 95°
2026-04-23 00:11 12.14065 -86.16115 521 ft 124 kts 96°
2026-04-23 00:12 12.13954 -86.15154 705 ft 144 kts 94°
2026-04-23 00:12 12.13882 -86.14186 1230 ft 134 kts 95°
2026-04-23 00:12 12.13782 -86.13234 1708 ft 136 kts 95°
2026-04-23 00:12 12.13682 -86.12258 2213 ft 138 kts 94°
2026-04-23 00:13 12.13580 -86.11292 2781 ft 136 kts 94°
2026-04-23 00:13 12.13481 -86.10335 3250 ft 138 kts 94°
2026-04-23 00:13 12.13378 -86.09362 3735 ft 137 kts 94°
2026-04-23 00:13 12.13305 -86.08387 4179 ft 139 kts 90°
2026-04-23 00:14 12.13255 -86.07400 4663 ft 139 kts 91°
2026-04-23 00:14 12.13200 -86.06405 5151 ft 141 kts 91°
2026-04-23 00:14 12.13146 -86.05399 5637 ft 142 kts 91°
2026-04-23 00:14 12.13091 -86.04401 6139 ft 143 kts 91°
2026-04-23 00:15 12.13037 -86.03387 6624 ft 144 kts 91°
2026-04-23 00:15 12.12981 -86.02358 7060 ft 146 kts 91°
2026-04-23 00:15 12.12926 -86.01320 7529 ft 146 kts 91°
2026-04-23 00:15 12.12870 -86.00276 7992 ft 148 kts 91°
2026-04-23 00:16 12.12813 -85.99225 8529 ft 149 kts 91°
2026-04-23 00:16 12.12755 -85.98154 9137 ft 152 kts 91°
2026-04-23 00:16 12.12697 -85.97065 9808 ft 154 kts 90°
2026-04-23 00:16 12.12638 -85.95975 10466 ft 156 kts 91°
2026-04-23 00:17 12.12575 -85.94845 11052 ft 162 kts 92°
2026-04-23 00:17 12.12515 -85.93704 11641 ft 159 kts 91°
2026-04-23 00:17 12.12454 -85.92568 12087 ft 160 kts 91°
2026-04-23 00:17 12.12393 -85.91439 12544 ft 160 kts 91°
2026-04-23 00:18 12.12330 -85.90282 12951 ft 163 kts 92°
2026-04-23 00:18 12.12267 -85.89115 13391 ft 165 kts 93°
2026-04-23 00:18 12.12201 -85.87931 13819 ft 167 kts 92°
2026-04-23 00:18 12.12137 -85.86741 14212 ft 169 kts 93°
2026-04-23 00:19 12.12074 -85.85564 14643 ft 167 kts 92°
2026-04-23 00:19 12.12008 -85.84353 14990 ft 173 kts 92°
2026-04-23 00:19 12.11941 -85.83124 15384 ft 175 kts 92°
2026-04-23 00:19 12.11872 -85.81870 15784 ft 177 kts 92°
2026-04-23 00:20 12.11804 -85.80614 16202 ft 178 kts 92°
2026-04-23 00:20 12.11735 -85.79347 16633 ft 179 kts 92°
2026-04-23 00:20 12.11689 -85.78502 16901 ft 181 kts 92°
2026-04-23 00:20 12.11596 -85.76791 17438 ft 184 kts 92°
2026-04-23 00:21 12.11522 -85.75471 17854 ft 186 kts 92°
2026-04-23 00:21 12.11450 -85.74151 18273 ft 187 kts 91°
2026-04-23 00:21 12.11379 -85.72820 18660 ft 188 kts 92°
2026-04-23 00:21 12.11328 -85.71915 18895 ft 190 kts 92°
2026-04-23 00:22 12.11254 -85.70561 19262 ft 192 kts 92°
2026-04-23 00:22 12.11180 -85.69212 19629 ft 193 kts 92°
2026-04-23 00:22 12.11104 -85.67837 20017 ft 194 kts 92°
2026-04-23 00:22 12.11028 -85.66454 20412 ft 195 kts 92°
2026-04-23 00:23 12.10951 -85.65057 20786 ft 197 kts 92°
2026-04-23 00:23 12.10874 -85.63668 21167 ft 199 kts 92°
2026-04-23 00:23 12.10796 -85.62246 21569 ft 200 kts 92°
2026-04-23 00:23 12.10717 -85.60817 21975 ft 202 kts 92°
2026-04-23 00:24 12.10637 -85.59378 22381 ft 203 kts 92°
2026-04-23 00:24 12.10558 -85.57928 22776 ft 205 kts 93°
2026-04-23 00:24 12.10476 -85.56464 23175 ft 207 kts 92°
2026-04-23 00:24 12.10395 -85.55006 23575 ft 208 kts 93°
2026-04-23 00:25 12.10313 -85.53517 23911 ft 210 kts 92°
2026-04-23 00:25 12.10229 -85.52020 24249 ft 212 kts 93°
2026-04-23 00:25 12.10145 -85.50509 24592 ft 214 kts 93°
2026-04-23 00:25 12.10060 -85.48986 24936 ft 215 kts 93°
2026-04-23 00:26 12.09975 -85.47446 25268 ft 217 kts 94°
2026-04-23 00:26 12.09889 -85.45916 25578 ft 219 kts 94°
2026-04-23 00:26 12.09802 -85.44352 25897 ft 221 kts 94°
2026-04-23 00:26 12.09715 -85.42780 26225 ft 222 kts 94°
2026-04-23 00:27 12.09626 -85.41197 26558 ft 223 kts 94°
2026-04-23 00:27 12.09537 -85.39601 26842 ft 228 kts 95°
2026-04-23 00:27 12.09442 -85.37932 26933 ft 241 kts 94°
2026-04-23 00:27 12.09343 -85.36174 26960 ft 254 kts 94°
2026-04-23 00:28 12.09241 -85.34326 26969 ft 265 kts 94°
2026-04-23 00:28 12.09132 -85.32416 26969 ft 273 kts 94°
2026-04-23 00:28 12.09023 -85.30484 26969 ft 278 kts 94°
2026-04-23 00:28 12.08912 -85.28494 26966 ft 282 kts 94°
2026-04-23 00:29 12.08799 -85.26482 26973 ft 284 kts 94°
2026-04-23 00:29 12.08684 -85.24452 26972 ft 286 kts 94°
2026-04-23 00:29 12.08567 -85.22414 26971 ft 287 kts 94°
2026-04-23 00:29 12.08455 -85.20400 26970 ft 288 kts 94°
2026-04-23 00:30 12.08338 -85.18351 26971 ft 288 kts 94°
2026-04-23 00:30 12.08221 -85.16301 26973 ft 288 kts 94°
2026-04-23 00:30 12.08028 -85.14268 26968 ft 287 kts 97°
2026-04-23 00:30 12.07852 -85.12231 26977 ft 288 kts 95°
2026-04-23 00:31 12.07726 -85.10189 26977 ft 288 kts 95°
2026-04-23 00:31 12.07553 -85.08150 26977 ft 288 kts 96°
2026-04-23 00:31 12.07359 -85.06110 26978 ft 288 kts 96°
2026-04-23 00:31 12.07176 -85.04090 26976 ft 288 kts 95°
2026-04-23 00:32 12.07002 -85.02053 26978 ft 288 kts 96°
2026-04-23 00:32 12.06825 -85.00017 26976 ft 288 kts 96°
2026-04-23 00:32 12.06646 -84.97977 26978 ft 287 kts 96°
2026-04-23 00:32 12.06465 -84.95943 26979 ft 287 kts 96°
2026-04-23 00:33 12.06286 -84.93910 26980 ft 287 kts 96°
2026-04-23 00:33 12.06106 -84.91870 26979 ft 287 kts 96°
2026-04-23 00:33 12.05927 -84.89834 26979 ft 287 kts 96°
2026-04-23 00:33 12.05748 -84.87801 26977 ft 287 kts 95°
2026-04-23 00:34 12.05569 -84.85794 26977 ft 287 kts 96°
2026-04-23 00:34 12.05480 -84.83751 26974 ft 287 kts 92°
2026-04-23 00:34 12.05362 -84.81719 26979 ft 287 kts 96°
2026-04-23 00:34 12.05198 -84.79682 26979 ft 287 kts 95°
2026-04-23 00:35 12.05084 -84.77644 26979 ft 287 kts 93°
2026-04-23 00:35 12.04991 -84.75601 26979 ft 287 kts 93°
2026-04-23 00:35 12.04884 -84.73589 26980 ft 287 kts 94°
2026-04-23 00:35 12.04766 -84.71547 26983 ft 287 kts 94°
2026-04-23 00:36 12.04653 -84.69506 26981 ft 288 kts 94°
2026-04-23 00:36 12.04544 -84.67465 26981 ft 287 kts 94°
2026-04-23 00:36 12.04433 -84.65425 26983 ft 287 kts 94°
2026-04-23 00:36 12.04318 -84.63380 26979 ft 288 kts 94°
2026-04-23 00:37 12.04206 -84.61336 26979 ft 288 kts 94°
2026-04-23 00:37 12.04095 -84.59317 26979 ft 288 kts 94°
2026-04-23 00:37 12.03984 -84.57274 26979 ft 288 kts 94°
2026-04-23 00:37 12.03869 -84.55231 26981 ft 288 kts 94°
2026-04-23 00:38 12.03756 -84.53184 26981 ft 288 kts 94°
2026-04-23 00:38 12.03644 -84.51140 26981 ft 288 kts 94°
2026-04-23 00:38 12.03529 -84.49092 26981 ft 288 kts 94°
2026-04-23 00:38 12.03416 -84.47070 26982 ft 288 kts 94°
2026-04-23 00:39 12.03304 -84.45024 26982 ft 288 kts 94°
2026-04-23 00:39 12.03190 -84.42980 26982 ft 288 kts 94°
2026-04-23 00:39 12.03075 -84.40931 26982 ft 288 kts 94°
2026-04-23 00:39 12.02962 -84.38884 26982 ft 288 kts 94°
2026-04-23 00:40 12.02849 -84.36867 26982 ft 288 kts 94°
2026-04-23 00:40 12.02734 -84.34821 26980 ft 288 kts 94°
2026-04-23 00:40 12.02618 -84.32774 26979 ft 288 kts 94°
2026-04-23 00:40 12.02505 -84.30732 26978 ft 288 kts 94°
2026-04-23 00:41 12.02391 -84.28685 26979 ft 288 kts 95°
2026-04-23 00:41 12.02275 -84.26637 26979 ft 288 kts 95°
2026-04-23 00:41 12.02160 -84.24617 26979 ft 288 kts 94°
2026-04-23 00:41 12.02044 -84.22568 26979 ft 288 kts 94°
2026-04-23 00:42 12.01930 -84.20524 26979 ft 288 kts 94°
2026-04-23 00:42 12.01813 -84.18479 26979 ft 288 kts 94°
2026-04-23 00:42 12.01697 -84.16434 26979 ft 288 kts 95°
2026-04-23 00:42 12.01583 -84.14389 26981 ft 288 kts 94°
2026-04-23 00:43 12.01467 -84.12340 26980 ft 288 kts 94°
2026-04-23 00:43 12.01349 -84.10294 26980 ft 289 kts 94°
2026-04-23 00:43 12.01232 -84.08249 26980 ft 288 kts 94°
2026-04-23 00:43 12.01116 -84.06198 26980 ft 288 kts 95°
2026-04-23 00:44 12.01000 -84.04177 26979 ft 288 kts 95°
2026-04-23 00:44 12.00883 -84.02126 26979 ft 289 kts 94°
2026-04-23 00:44 12.00766 -84.00079 26979 ft 288 kts 94°
2026-04-23 00:44 12.00650 -83.98029 26978 ft 288 kts 95°
2026-04-23 00:45 12.00530 -83.95979 26978 ft 288 kts 94°
2026-04-23 00:45 12.00413 -83.93931 26978 ft 289 kts 94°
2026-04-23 00:45 12.00297 -83.91910 26978 ft 288 kts 94°
2026-04-23 00:45 12.00181 -83.89866 26978 ft 288 kts 95°
2026-04-23 00:46 12.00061 -83.87815 26977 ft 288 kts 95°
2026-04-23 00:46 11.99943 -83.85769 26977 ft 288 kts 94°
2026-04-23 00:46 11.99826 -83.83723 26977 ft 288 kts 94°
2026-04-23 00:46 11.99709 -83.81703 26977 ft 288 kts 94°
2026-04-23 00:47 11.99588 -83.79655 26977 ft 288 kts 95°
2026-04-23 00:47 11.99493 -83.77608 26976 ft 288 kts 89°
2026-04-23 00:47 11.99865 -83.75607 26975 ft 288 kts 75°
2026-04-23 00:47 12.00424 -83.73638 26975 ft 289 kts 75°
2026-04-23 00:48 12.00979 -83.71661 26976 ft 289 kts 75°
2026-04-23 00:48 12.01506 -83.69701 26976 ft 289 kts 76°
2026-04-23 00:48 12.02038 -83.67717 26977 ft 289 kts 75°
2026-04-23 00:48 12.02576 -83.65734 26978 ft 289 kts 75°
2026-04-23 00:49 12.03114 -83.63752 26979 ft 289 kts 75°
2026-04-23 00:49 12.03651 -83.61768 26979 ft 290 kts 76°
2026-04-23 00:49 12.04188 -83.59785 26979 ft 290 kts 75°
2026-04-23 00:49 12.04726 -83.57800 26980 ft 290 kts 75°
2026-04-23 00:50 12.05263 -83.55818 26981 ft 290 kts 75°
2026-04-23 00:50 12.05791 -83.53857 26982 ft 290 kts 76°
2026-04-23 00:50 12.06327 -83.51878 26981 ft 290 kts 76°
2026-04-23 00:50 12.06864 -83.49894 26979 ft 289 kts 76°
2026-04-23 00:51 12.07401 -83.47906 26980 ft 289 kts 75°
2026-04-23 00:51 12.07937 -83.45922 26981 ft 289 kts 76°
2026-04-23 00:51 12.08465 -83.43962 26982 ft 289 kts 75°
2026-04-23 00:51 12.09000 -83.41981 26982 ft 289 kts 76°
2026-04-23 00:52 12.09536 -83.40000 26982 ft 289 kts 76°
2026-04-23 00:52 12.10071 -83.38019 26983 ft 289 kts 75°
2026-04-23 00:52 12.10605 -83.36038 26983 ft 289 kts 75°
2026-04-23 00:52 12.11139 -83.34058 26975 ft 289 kts 76°
2026-04-23 00:53 12.11677 -83.32056 26780 ft 295 kts 76°
2026-04-23 00:53 12.12230 -83.30005 26479 ft 303 kts 75°
2026-04-23 00:53 12.12796 -83.27909 26145 ft 308 kts 75°
2026-04-23 00:53 12.13367 -83.25785 25800 ft 312 kts 75°
2026-04-23 00:54 12.13944 -83.23642 25451 ft 314 kts 75°
2026-04-23 00:54 12.14518 -83.21510 25102 ft 316 kts 75°
2026-04-23 00:54 12.15103 -83.19335 24748 ft 317 kts 74°
2026-04-23 00:54 12.15689 -83.17158 24392 ft 317 kts 74°
2026-04-23 00:55 12.16272 -83.14988 24037 ft 315 kts 74°
2026-04-23 00:55 12.16851 -83.12834 23685 ft 313 kts 73°
2026-04-23 00:55 12.17424 -83.10701 23302 ft 309 kts 74°
2026-04-23 00:55 12.17992 -83.08589 22940 ft 306 kts 74°
2026-04-23 00:56 12.18551 -83.06504 22596 ft 303 kts 74°
2026-04-23 00:56 12.19105 -83.04438 22256 ft 300 kts 73°
2026-04-23 00:56 12.19650 -83.02412 21927 ft 298 kts 74°
2026-04-23 00:56 12.20197 -83.00374 21597 ft 296 kts 74°
2026-04-23 00:57 12.20739 -82.98348 21266 ft 294 kts 74°
2026-04-23 00:57 12.21280 -82.96336 20938 ft 292 kts 74°
2026-04-23 00:57 12.21815 -82.94338 20611 ft 290 kts 74°
2026-04-23 00:57 12.22346 -82.92356 20289 ft 288 kts 74°
2026-04-23 00:58 12.22875 -82.90380 19965 ft 287 kts 74°
2026-04-23 00:58 12.23423 -82.88425 19643 ft 284 kts 69°
2026-04-23 00:58 12.24211 -82.86614 19332 ft 283 kts 65°
2026-04-23 00:58 12.25025 -82.84814 19016 ft 274 kts 65°
2026-04-23 00:59 12.25807 -82.83055 18711 ft 269 kts 65°
2026-04-23 00:59 12.26576 -82.81321 18409 ft 267 kts 65°
2026-04-23 00:59 12.27333 -82.79621 18099 ft 264 kts 65°
2026-04-23 00:59 12.28090 -82.77922 17792 ft 262 kts 66°
2026-04-23 01:00 12.28706 -82.76183 17500 ft 259 kts 77°
2026-04-23 01:00 12.29108 -82.74389 17205 ft 258 kts 77°
2026-04-23 01:00 12.29519 -82.72609 16936 ft 257 kts 76°
2026-04-23 01:00 12.29938 -82.70830 16659 ft 257 kts 76°
2026-04-23 01:01 12.30352 -82.69057 16375 ft 256 kts 76°
2026-04-23 01:01 12.30763 -82.67291 16088 ft 255 kts 77°
2026-04-23 01:01 12.31167 -82.65552 15806 ft 255 kts 76°
2026-04-23 01:01 12.31578 -82.63787 15523 ft 254 kts 76°
2026-04-23 01:02 12.31985 -82.62035 15242 ft 253 kts 76°
2026-04-23 01:02 12.32392 -82.60285 14958 ft 252 kts 76°
2026-04-23 01:02 12.32797 -82.58541 14677 ft 251 kts 76°
2026-04-23 01:02 12.33201 -82.56803 14398 ft 250 kts 76°
2026-04-23 01:03 12.33599 -82.55093 14119 ft 250 kts 76°
2026-04-23 01:03 12.34000 -82.53367 13843 ft 249 kts 76°
2026-04-23 01:03 12.34400 -82.51643 13543 ft 248 kts 76°
2026-04-23 01:03 12.34797 -82.49934 13256 ft 246 kts 76°
2026-04-23 01:04 12.35191 -82.48235 12982 ft 244 kts 76°
2026-04-23 01:04 12.35582 -82.46552 12708 ft 242 kts 76°
2026-04-23 01:04 12.36355 -82.43221 12167 ft 239 kts 76°
2026-04-23 01:05 12.36732 -82.41591 11903 ft 237 kts 76°
2026-04-23 01:05 12.37112 -82.39952 11638 ft 236 kts 76°
2026-04-23 01:05 12.37490 -82.38321 11375 ft 235 kts 76°
2026-04-23 01:05 12.37866 -82.36696 11111 ft 234 kts 76°
2026-04-23 01:06 12.38241 -82.35080 10849 ft 233 kts 76°
2026-04-23 01:06 12.38613 -82.33470 10588 ft 231 kts 76°
2026-04-23 01:06 12.38982 -82.31873 10323 ft 230 kts 76°
2026-04-23 01:06 12.39350 -82.30283 10075 ft 229 kts 76°
2026-04-23 01:07 12.39716 -82.28702 9813 ft 227 kts 75°
2026-04-23 01:07 12.40078 -82.27135 9542 ft 225 kts 76°
2026-04-23 01:07 12.40434 -82.25595 9288 ft 224 kts 76°
2026-04-23 01:07 12.40791 -82.24051 9032 ft 221 kts 75°
2026-04-23 01:08 12.41145 -82.22522 8781 ft 220 kts 76°
2026-04-23 01:08 12.41496 -82.20999 8539 ft 220 kts 76°
2026-04-23 01:08 12.41845 -82.19484 8293 ft 218 kts 76°
2026-04-23 01:08 12.42188 -82.18004 8056 ft 216 kts 75°
2026-04-23 01:09 12.42533 -82.16510 7814 ft 215 kts 76°
2026-04-23 01:09 12.42876 -82.15017 7568 ft 215 kts 76°
2026-04-23 01:09 12.43103 -82.14035 7415 ft 213 kts 76°
2026-04-23 01:09 12.43442 -82.12566 7174 ft 211 kts 75°
2026-04-23 01:10 12.43780 -82.11101 6940 ft 211 kts 76°
2026-04-23 01:10 12.44115 -82.09643 6704 ft 210 kts 75°
2026-04-23 01:10 12.44450 -82.08195 6468 ft 208 kts 76°
2026-04-23 01:10 12.44781 -82.06757 6227 ft 207 kts 76°
2026-04-23 01:11 12.45112 -82.05321 5989 ft 207 kts 76°
2026-04-23 01:11 12.45441 -82.03889 5758 ft 206 kts 75°
2026-04-23 01:11 12.45765 -82.02483 5530 ft 205 kts 75°
2026-04-23 01:11 12.46091 -82.01064 5302 ft 204 kts 76°
2026-04-23 01:12 12.46415 -81.99657 5076 ft 203 kts 76°
2026-04-23 01:12 12.46737 -81.98257 4850 ft 201 kts 75°
2026-04-23 01:12 12.47057 -81.96868 4623 ft 199 kts 76°
2026-04-23 01:12 12.47375 -81.95485 4401 ft 199 kts 76°
2026-04-23 01:13 12.47691 -81.94110 4180 ft 198 kts 75°
2026-04-23 01:13 12.48003 -81.92753 3959 ft 198 kts 75°
2026-04-23 01:13 12.48315 -81.91391 3739 ft 196 kts 76°
2026-04-23 01:13 12.48627 -81.90033 3525 ft 196 kts 76°
2026-04-23 01:14 12.48940 -81.88673 3308 ft 196 kts 76°
2026-04-23 01:14 12.49252 -81.87315 3084 ft 195 kts 76°
2026-04-23 01:14 12.49766 -81.86052 2872 ft 192 kts 59°
2026-04-23 01:14 12.50455 -81.84894 2664 ft 189 kts 59°
2026-04-23 01:15 12.51127 -81.83734 2446 ft 188 kts 59°
2026-04-23 01:15 12.51780 -81.82595 2239 ft 188 kts 59°
2026-04-23 01:15 12.52442 -81.81444 2026 ft 186 kts 59°
2026-04-23 01:15 12.53100 -81.80299 1821 ft 186 kts 58°
2026-04-23 01:16 12.53735 -81.79193 1618 ft 165 kts 58°
2026-04-23 01:16 12.54314 -81.78184 1396 ft 162 kts 59°
2026-04-23 01:16 12.54866 -81.77218 1184 ft 150 kts 57°
2026-04-23 01:16 12.55383 -81.76320 995 ft 146 kts 60°
2026-04-23 01:17 12.55884 -81.75445 808 ft 142 kts 59°
2026-04-23 01:17 12.56361 -81.74618 647 ft 125 kts 59°
2026-04-23 01:17 12.56812 -81.73839 473 ft 130 kts 62°
2026-04-23 01:17 12.57259 -81.73045 253 ft 127 kts 59°
2026-04-23 01:18 12.57708 -81.72272 109 ft 122 kts 60°
2026-04-23 01:18 12.58069 -81.71624 22 ft 88 kts 60°
2026-04-23 01:18 12.58340 -81.71156 21 ft 63 kts 59°
2026-04-23 01:18 12.58529 -81.70828 17 ft 36 kts 59°
2026-04-23 01:19 12.58646 -81.70616 13 ft 33 kts 58°
2026-04-23 01:19 12.58733 -81.70467 11 ft 12 kts 61°
2026-04-23 01:19 12.58732 -81.70404 10 ft 13 kts 118°
2026-04-23 01:19 12.58714 -81.70344 10 ft 5 kts 54°
2026-04-23 01:20 12.58751 -81.70281 8 ft 12 kts 60°
2026-04-23 01:20 12.58766 -81.70234 7 ft 6 kts 114°
2026-04-23 01:20 12.58727 -81.70190 5 ft 6 kts 136°
2026-04-23 01:20 12.58718 -81.70171 5 ft 0 kts 56°